sat.trackr.live / text

‹ back to catalog

STARLINK-1080

NORAD 44961 · 2020-001AZ

PAYLOAD ACTIVE UNKNOWN

§ Identity

Operator
Country
US
Launch date
2020-01-07
Launch site
AFETR
Launch vehicle
Mass (kg)
RCS (m²)

Purposes: comms

External: N2YO · Heavens-Above · Gunter

§ Orbital elements

Epoch: 2026-05-25T06:00:02.000160Z

Period
91.98 min
Inclination
53.0453°
Eccentricity
0.0001247
Mean motion
15.65566223 rev/d
Perigee alt
370.8 km
Apogee alt
372.5 km
Semi-major
6,749.7 km
B*
5.2430e-3
RAAN
278.6980°
Arg perigee
73.4390°
Mean anomaly
79.5097°
Rev number
583

§ Raw data

STARLINK-10801 44961U 20001AZ  26145.25002315  .00575496  00000+0  52430-2 0  99942 44961  53.0453 278.6980 0001247  73.4390  79.5097 15.65566223  5830

JSON: /api/v1/satellites/44961 · /tle

For live sub-satellite position, see the globe view (requires WebGL).

§ Visibility from observer

Set your observer location to see the next 7 days of passes ≥ 10°. The values pass through the URL so the page stays shareable.

No JS? Fill the form by hand. The geolocation button needs JavaScript.